QPF
0.00 0.00 0.00 0.00 0.00 0.00 0.00 0.00 0.00 0.00 0.00 0.00 0.01 0.01 0.00 0.00 0.00 0.00 0.00 0.00 0.00 0.00 0.00 0.00 0.00 0.00 0.01 0.02 0.02 0.01 0.01 0.00 0.00 0.00 0.00 0.00 0.00 0.00 0.00 0.00 0.00 0.00 0.00 0.00 0.00 0.00 0.00 0.00 0.00
0.00 0.00 0.00 0.00 0.00 0.00 0.00 0.00 0.00 0.00 0.00 0.00 0.00 0.00 0.00 0.00 0.00 0.00 0.00 0.00 0.00 0.00 0.00 0.00 0.00 0.00 0.01 0.01 0.01 0.01 0.01 0.00 0.00 0.00 0.00 0.00 0.00 0.00 0.00 0.00 0.00 0.00 0.00 0.00 0.00 0.00 0.00 0.00 0.00
0.00 0.00 0.00 0.00 0.00 0.00 0.00 0.00 0.00 0.00 0.00 0.01 0.01 0.00 0.00 0.00 0.00 0.00 0.00 0.00 0.00 0.00 0.00 0.00 0.00 0.00 0.01 0.01 0.01 0.01 0.01 0.00 0.00 0.00 0.00 0.00 0.00 0.00 0.00 0.01 0.00 0.00 0.00 0.00 0.00 0.00 0.00 0.00 0.00
0.00 0.00 0.00 0.00 0.00 0.00 0.00 0.00 0.00 0.00 0.00 0.00 0.00 0.00 0.00 0.00 0.00 0.00 0.00 0.00 0.00 0.00 0.00 0.00 0.00 0.00 0.00 0.00 0.00 0.01 0.01 0.00 0.00 0.00 0.00 0.00 0.00 0.00 0.00 0.01 0.01 0.00 0.00 0.00 0.00 0.00 0.00 0.00 0.00
0.00 0.00 0.00 0.00 0.00 0.00 0.00 0.00 0.00 0.00 0.00 0.00 0.00 0.00 0.00 0.00 0.00 0.00 0.00 0.00 0.00 0.00 0.00 0.00 0.00 0.00 0.00 0.00 0.00 0.00 0.00 0.00 0.00 0.00 0.00 0.00 0.00 0.01 0.01 0.01 0.00 0.00 0.00 0.00 0.00 0.00 0.00 0.00 0.00
0.00 0.00 0.00 0.00 0.00 0.00 0.00 0.00 0.00 0.00 0.00 0.00 0.00 0.00 0.00 0.00 0.00 0.00 0.00 0.00 0.00 0.00 0.00 0.00 0.00 0.00 0.00 0.00 0.00 0.00 0.00 0.00 0.00 0.00 0.00 0.00 0.00 0.01 0.01 0.01 0.00 0.00 0.00 0.00 0.00 0.00 0.00 0.00 0.00
0.00 0.00 0.00 0.00 0.00 0.00 0.00 0.00 0.00 0.00 0.00 0.00 0.00 0.00 0.00 0.00 0.00 0.00 0.00 0.00 0.00 0.00 0.00 0.00 0.00 0.00 0.00 0.01 0.01 0.01 0.00 0.00 0.00 0.00 0.00 0.00 0.00 0.00 0.00 0.00 0.00 0.00 0.00 0.00 0.00 0.00 0.00 0.00 0.00
0.00 0.00 0.00 0.00 0.00 0.00 0.00 0.00 0.00 0.00 0.00 0.00 0.00 0.00 0.00 0.00 0.00 0.00 0.00 0.00 0.00 0.00 0.00 0.00 0.00 0.00 0.00 0.01 0.01 0.01 0.01 0.01 0.01 0.00 0.00 0.00 0.00 0.00 0.00 0.00 0.00 0.00 0.00 0.00 0.00 0.00 0.00 0.00 0.00
0.00 0.00 0.00 0.00 0.00 0.00 0.00 0.00 0.00 0.00 0.00 0.00 0.00 0.00 0.00 0.00 0.00 0.00 0.00 0.00 0.00 0.00 0.00 0.00 0.00 0.00 0.01 0.00 0.01 0.01 0.01 0.01 0.01 0.00 0.00 0.00 0.00 0.00 0.00 0.00 0.00 0.00 0.00 0.00 0.00 0.00 0.00 0.00 0.00
0.00 0.00 0.00 0.00 0.00 0.00 0.00 0.00 0.00 0.00 0.00 0.00 0.00 0.00 0.00 0.00 0.00 0.00 0.00 0.00 0.00 0.00 0.00 0.00 0.00 0.00 0.00 0.00 0.01 0.01 0.01 0.00 0.00 0.00 0.00 0.00 0.01 0.01 0.00 0.00 0.00 0.00 0.00 0.00 0.00 0.00 0.00 0.00 0.00
0.00 0.00 0.00 0.00 0.00 0.00 0.00 0.00 0.00 0.00 0.00 0.00 0.00 0.00 0.00 0.00 0.00 0.00 0.00 0.00 0.00 0.00 0.00 0.00 0.00 0.00 0.01 0.01 0.01 0.01 0.02 0.01 0.01 0.01 0.00 0.00 0.00 0.00 0.00 0.00 0.00 0.00 0.00 0.01 0.01 0.00 0.00 0.00 0.00
0.00 0.00 0.00 0.00 0.00 0.00 0.00 0.00 0.00 0.00 0.00 0.00 0.00 0.00 0.00 0.00 0.00 0.00 0.00 0.00 0.00 0.00 0.00 0.00 0.00 0.00 0.00 0.01 0.01 0.01 0.01 0.01 0.01 0.01 0.00 0.00 0.00 0.00 0.00 0.00 0.00 0.01 0.01 0.01 0.01 0.00 0.00 0.00 0.00
0.00 0.00 0.00 0.00 0.00 0.00 0.00 0.00 0.00 0.00 0.00 0.00 0.00 0.00 0.00 0.00 0.00 0.00 0.00 0.00 0.00 0.00 0.00 0.00 0.00 0.00 0.01 0.01 0.01 0.01 0.01 0.01 0.01 0.01 0.00 0.00 0.00 0.00 0.00 0.01 0.01 0.02 0.02 0.01 0.01 0.01 0.01 0.00 0.00
0.00 0.00 0.00 0.00 0.00 0.00 0.00 0.00 0.00 0.00 0.00 0.00 0.00 0.00 0.00 0.00 0.00 0.00 0.00 0.00 0.00 0.00 0.00 0.00 0.00 0.00 0.01 0.01 0.01 0.01 0.01 0.01 0.01 0.00 0.00 0.00 0.00 0.01 0.01 0.01 0.02 0.03 0.03 0.03 0.02 0.02 0.02 0.01 0.00
0.00 0.00 0.00 0.00 0.00 0.00 0.00 0.00 0.00 0.00 0.00 0.00 0.00 0.00 0.00 0.00 0.00 0.00 0.00 0.00 0.00 0.00 0.00 0.00 0.00 0.00 0.00 0.00 0.01 0.01 0.01 0.01 0.01 0.01 0.01 0.00 0.01 0.02 0.03 0.03 0.04 0.05 0.05 0.05 0.04 0.04 0.02 0.01 0.01
0.00 0.00 0.00 0.00 0.00 0.00 0.00 0.00 0.00 0.00 0.00 0.00 0.00 0.00 0.00 0.00 0.00 0.00 0.00 0.01 0.01 0.01 0.01 0.01 0.00 0.00 0.00 0.00 0.00 0.00 0.00 0.01 0.01 0.01 0.01 0.01 0.01 0.02 0.03 0.04 0.07 0.08 0.09 0.08 0.08 0.05 0.05 0.04 0.03
0.00 0.00 0.00 0.00 0.00 0.00 0.00 0.00 0.00 0.00 0.00 0.00 0.00 0.00 0.00 0.00 0.00 0.00 0.01 0.01 0.01 0.02 0.02 0.02 0.01 0.01 0.01 0.01 0.01 0.01 0.01 0.01 0.02 0.02 0.03 0.03 0.03 0.05 0.08 0.10 0.12 0.13 0.13 0.13 0.13 0.11 0.10 0.09 0.06
0.00 0.00 0.00 0.00 0.00 0.00 0.00 0.00 0.00 0.00 0.00 0.00 0.00 0.00 0.00 0.00 0.00 0.00 0.01 0.01 0.01 0.03 0.02 0.02 0.02 0.02 0.02 0.02 0.02 0.02 0.02 0.02 0.03 0.05 0.09 0.13 0.13 0.12 0.14 0.15 0.16 0.18 0.21 0.24 0.22 0.16 0.14 0.12 0.10
0.00 0.00 0.00 0.00 0.00 0.00 0.00 0.00 0.00 0.00 0.00 0.00 0.00 0.00 0.00 0.00 0.00 0.01 0.01 0.01 0.02 0.03 0.04 0.03 0.02 0.03 0.04 0.04 0.04 0.03 0.04 0.05 0.06 0.09 0.15 0.21 0.22 0.22 0.24 0.29 0.32 0.31 0.32 0.35 0.31 0.25 0.22 0.16 0.13
0.00 0.00 0.00 0.00 0.00 0.00 0.00 0.00 0.00 0.00 0.00 0.00 0.01 0.01 0.00 0.00 0.00 0.01 0.01 0.01 0.02 0.03 0.04 0.04 0.03 0.04 0.05 0.06 0.07 0.09 0.14 0.17 0.19 0.24 0.30 0.34 0.37 0.37 0.38 0.43 0.43 0.39 0.40 0.38 0.33 0.27 0.24 0.20 0.17
0.00 0.00 0.00 0.00 0.00 0.00 0.00 0.01 0.01 0.01 0.01 0.01 0.01 0.02 0.01 0.01 0.01 0.01 0.01 0.02 0.02 0.03 0.04 0.03 0.04 0.06 0.08 0.12 0.17 0.22 0.29 0.35 0.40 0.47 0.50 0.50 0.50 0.50 0.47 0.44 0.41 0.39 0.39 0.39 0.39 0.35 0.30 0.24 0.19
0.00 0.00 0.00 0.00 0.00 0.00 0.00 0.01 0.02 0.01 0.01 0.01 0.01 0.01 0.01 0.01 0.01 0.02 0.02 0.03 0.04 0.04 0.04 0.03 0.04 0.06 0.07 0.14 0.19 0.27 0.39 0.49 0.60 0.66 0.66 0.62 0.61 0.55 0.46 0.39 0.34 0.36 0.40 0.42 0.39 0.31 0.24 0.19 0.15
0.00 0.00 0.00 0.00 0.00 0.00 0.00 0.02 0.03 0.02 0.01 0.02 0.02 0.01 0.01 0.02 0.02 0.03 0.03 0.03 0.04 0.04 0.03 0.04 0.05 0.07 0.07 0.11 0.17 0.25 0.34 0.43 0.52 0.55 0.57 0.57 0.53 0.47 0.38 0.31 0.28 0.27 0.26 0.25 0.20 0.16 0.15 0.13 0.12
0.00 0.00 0.00 0.00 0.00 0.01 0.01 0.02 0.03 0.03 0.02 0.02 0.02 0.02 0.02 0.02 0.03 0.03 0.03 0.02 0.03 0.04 0.04 0.05 0.07 0.09 0.10 0.12 0.16 0.24 0.31 0.38 0.46 0.49 0.46 0.41 0.36 0.31 0.26 0.19 0.15 0.13 0.12 0.10 0.09 0.09 0.09 0.10 0.11
0.00 0.00 0.00 0.00 0.00 0.01 0.01 0.02 0.03 0.04 0.02 0.01 0.02 0.02 0.02 0.02 0.02 0.02 0.03 0.03 0.04 0.04 0.06 0.06 0.08 0.09 0.09 0.11 0.20 0.29 0.31 0.32 0.36 0.36 0.33 0.28 0.23 0.20 0.17 0.13 0.10 0.08 0.07 0.06 0.06 0.07 0.07 0.07 0.07
0.00 0.00 0.00 0.00 0.00 0.01 0.02 0.02 0.04 0.04 0.02 0.01 0.01 0.02 0.02 0.02 0.02 0.02 0.02 0.03 0.03 0.04 0.04 0.05 0.06 0.08 0.09 0.11 0.17 0.21 0.22 0.22 0.24 0.22 0.18 0.14 0.11 0.09 0.07 0.07 0.07 0.06 0.06 0.05 0.05 0.04 0.04 0.04 0.03
0.00 0.00 0.00 0.00 0.00 0.01 0.02 0.02 0.04 0.04 0.03 0.02 0.02 0.01 0.02 0.02 0.02 0.02 0.02 0.02 0.03 0.03 0.03 0.04 0.04 0.05 0.06 0.07 0.08 0.09 0.10 0.11 0.11 0.11 0.10 0.09 0.08 0.07 0.06 0.06 0.06 0.06 0.05 0.04 0.03 0.04 0.03 0.03 0.03
0.00 0.00 0.00 0.00 0.00 0.01 0.02 0.02 0.03 0.04 0.04 0.02 0.02 0.02 0.02 0.02 0.01 0.01 0.01 0.02 0.02 0.02 0.02 0.03 0.03 0.04 0.04 0.04 0.04 0.05 0.06 0.07 0.07 0.08 0.08 0.08 0.07 0.07 0.07 0.06 0.05 0.04 0.04 0.03 0.03 0.03 0.02 0.02 0.02
0.00 0.00 0.00 0.00 0.00 0.00 0.02 0.03 0.02 0.03 0.03 0.02 0.02 0.01 0.01 0.01 0.02 0.01 0.01 0.01 0.02 0.02 0.02 0.02 0.02 0.02 0.03 0.03 0.04 0.04 0.05 0.05 0.05 0.05 0.05 0.06 0.06 0.06 0.05 0.05 0.04 0.04 0.04 0.04 0.04 0.04 0.04 0.03 0.03
0.00 0.00 0.00 0.00 0.00 0.00 0.02 0.03 0.01 0.02 0.03 0.03 0.03 0.02 0.02 0.02 0.01 0.01 0.01 0.01 0.01 0.02 0.02 0.02 0.02 0.02 0.02 0.02 0.02 0.03 0.03 0.04 0.05 0.06 0.06 0.06 0.05 0.05 0.05 0.05 0.05 0.05 0.04 0.04 0.04 0.04 0.04 0.03 0.03
MSLP
1011.63 1011.83 1012.09 1012.33 1012.48 1012.50 1012.38 1012.16 1011.88 1011.61 1011.40 1011.28 1011.24 1011.27 1011.30 1011.31 1011.25 1011.13 1010.99 1010.89 1010.88 1011.03 1011.34 1011.82 1012.40 1013.02 1013.59 1014.07 1014.42 1014.65 1014.82 1014.99 1015.21 1015.52 1015.92 1016.38 1016.84 1017.24 1017.54 1017.70 1017.74 1017.70 1017.65 1017.62 1017.68 1017.81 1018.00 1018.20 1018.36
1011.76 1012.01 1012.29 1012.52 1012.63 1012.59 1012.38 1012.06 1011.66 1011.28 1010.97 1010.76 1010.66 1010.65 1010.68 1010.71 1010.71 1010.68 1010.64 1010.64 1010.75 1010.99 1011.39 1011.94 1012.57 1013.22 1013.81 1014.30 1014.67 1014.93 1015.13 1015.32 1015.56 1015.89 1016.29 1016.73 1017.17 1017.53 1017.78 1017.90 1017.91 1017.87 1017.83 1017.83 1017.92 1018.09 1018.31 1018.52 1018.68
1011.93 1012.22 1012.50 1012.70 1012.75 1012.62 1012.33 1011.90 1011.42 1010.94 1010.55 1010.28 1010.14 1010.10 1010.14 1010.20 1010.25 1010.30 1010.36 1010.47 1010.67 1011.01 1011.49 1012.10 1012.78 1013.46 1014.08 1014.60 1015.00 1015.29 1015.52 1015.74 1016.01 1016.34 1016.72 1017.14 1017.52 1017.84 1018.04 1018.12 1018.12 1018.08 1018.06 1018.11 1018.24 1018.44 1018.68 1018.89 1019.02
1012.11 1012.40 1012.66 1012.81 1012.79 1012.59 1012.22 1011.72 1011.17 1010.64 1010.20 1009.90 1009.73 1009.69 1009.74 1009.83 1009.95 1010.07 1010.21 1010.40 1010.70 1011.11 1011.66 1012.30 1013.02 1013.73 1014.38 1014.92 1015.35 1015.68 1015.94 1016.19 1016.47 1016.79 1017.16 1017.53 1017.87 1018.13 1018.29 1018.36 1018.35 1018.34 1018.35 1018.44 1018.61 1018.84 1019.09 1019.28 1019.38
1012.25 1012.52 1012.73 1012.82 1012.74 1012.48 1012.05 1011.51 1010.94 1010.39 1009.94 1009.64 1009.48 1009.45 1009.52 1009.65 1009.81 1009.99 1010.20 1010.46 1010.82 1011.28 1011.86 1012.54 1013.26 1013.98 1014.64 1015.20 1015.65 1016.01 1016.30 1016.57 1016.85 1017.17 1017.50 1017.84 1018.14 1018.36 1018.50 1018.56 1018.57 1018.59 1018.64 1018.77 1018.98 1019.22 1019.46 1019.63 1019.69
1012.33 1012.54 1012.69 1012.72 1012.58 1012.27 1011.83 1011.29 1010.72 1010.19 1009.77 1009.49 1009.35 1009.35 1009.45 1009.61 1009.81 1010.03 1010.29 1010.60 1011.00 1011.49 1012.08 1012.76 1013.47 1014.18 1014.82 1015.38 1015.84 1016.21 1016.51 1016.80 1017.08 1017.39 1017.70 1018.01 1018.28 1018.48 1018.61 1018.68 1018.72 1018.77 1018.87 1019.04 1019.26 1019.50 1019.72 1019.86 1019.88
1012.33 1012.48 1012.56 1012.52 1012.34 1012.01 1011.57 1011.05 1010.52 1010.04 1009.66 1009.42 1009.31 1009.34 1009.46 1009.65 1009.88 1010.14 1010.43 1010.77 1011.18 1011.68 1012.26 1012.91 1013.59 1014.26 1014.88 1015.41 1015.86 1016.23 1016.55 1016.84 1017.13 1017.42 1017.73 1018.02 1018.27 1018.46 1018.60 1018.69 1018.77 1018.85 1018.98 1019.17 1019.39 1019.62 1019.80 1019.90 1019.87
1012.28 1012.36 1012.37 1012.28 1012.06 1011.73 1011.30 1010.82 1010.34 1009.91 1009.58 1009.37 1009.29 1009.33 1009.47 1009.67 1009.92 1010.20 1010.52 1010.88 1011.30 1011.79 1012.35 1012.96 1013.59 1014.22 1014.79 1015.30 1015.73 1016.09 1016.41 1016.70 1016.99 1017.30 1017.59 1017.88 1018.13 1018.33 1018.48 1018.60 1018.70 1018.81 1018.96 1019.14 1019.34 1019.54 1019.67 1019.72 1019.65
1012.21 1012.23 1012.18 1012.04 1011.80 1011.46 1011.06 1010.62 1010.17 1009.78 1009.48 1009.29 1009.22 1009.26 1009.39 1009.60 1009.87 1010.17 1010.50 1010.88 1011.31 1011.79 1012.33 1012.90 1013.49 1014.06 1014.59 1015.06 1015.47 1015.82 1016.14 1016.45 1016.75 1017.06 1017.36 1017.65 1017.91 1018.13 1018.30 1018.43 1018.55 1018.68 1018.82 1018.98 1019.15 1019.29 1019.36 1019.35 1019.24
1012.16 1012.12 1012.02 1011.84 1011.58 1011.25 1010.86 1010.44 1010.02 1009.64 1009.34 1009.14 1009.05 1009.07 1009.20 1009.40 1009.67 1010.00 1010.36 1010.77 1011.21 1011.70 1012.22 1012.77 1013.31 1013.84 1014.33 1014.77 1015.16 1015.51 1015.84 1016.15 1016.47 1016.79 1017.11 1017.41 1017.68 1017.91 1018.10 1018.25 1018.38 1018.51 1018.63 1018.76 1018.87 1018.95 1018.96 1018.89 1018.74
1012.14 1012.06 1011.92 1011.71 1011.43 1011.10 1010.71 1010.29 1009.87 1009.48 1009.15 1008.91 1008.78 1008.77 1008.87 1009.07 1009.35 1009.70 1010.10 1010.55 1011.03 1011.54 1012.07 1012.60 1013.12 1013.62 1014.08 1014.50 1014.88 1015.23 1015.57 1015.90 1016.23 1016.57 1016.91 1017.23 1017.51 1017.76 1017.96 1018.12 1018.25 1018.37 1018.47 1018.56 1018.62 1018.63 1018.58 1018.45 1018.26
1012.16 1012.04 1011.86 1011.62 1011.33 1010.97 1010.57 1010.14 1009.69 1009.26 1008.89 1008.61 1008.43 1008.38 1008.45 1008.65 1008.95 1009.34 1009.79 1010.29 1010.82 1011.37 1011.92 1012.46 1012.97 1013.45 1013.90 1014.30 1014.68 1015.03 1015.38 1015.73 1016.09 1016.45 1016.80 1017.13 1017.43 1017.69 1017.90 1018.07 1018.21 1018.31 1018.39 1018.44 1018.46 1018.42 1018.31 1018.14 1017.92
1012.18 1012.02 1011.81 1011.54 1011.21 1010.84 1010.41 1009.95 1009.47 1009.00 1008.59 1008.25 1008.03 1007.95 1008.01 1008.22 1008.55 1008.98 1009.50 1010.06 1010.65 1011.24 1011.82 1012.38 1012.89 1013.37 1013.80 1014.21 1014.58 1014.94 1015.30 1015.66 1016.03 1016.41 1016.78 1017.12 1017.44 1017.71 1017.93 1018.11 1018.24 1018.34 1018.42 1018.45 1018.44 1018.37 1018.24 1018.05 1017.81
1012.16 1011.97 1011.71 1011.40 1011.04 1010.64 1010.19 1009.71 1009.20 1008.71 1008.26 1007.90 1007.66 1007.57 1007.64 1007.86 1008.24 1008.72 1009.30 1009.92 1010.56 1011.20 1011.81 1012.38 1012.90 1013.37 1013.79 1014.19 1014.56 1014.92 1015.29 1015.66 1016.04 1016.43 1016.81 1017.16 1017.48 1017.76 1018.00 1018.18 1018.33 1018.44 1018.52 1018.55 1018.54 1018.48 1018.35 1018.17 1017.95
1012.09 1011.84 1011.53 1011.18 1010.79 1010.37 1009.91 1009.42 1008.92 1008.43 1007.98 1007.63 1007.40 1007.33 1007.42 1007.68 1008.10 1008.63 1009.25 1009.91 1010.58 1011.24 1011.86 1012.43 1012.94 1013.40 1013.81 1014.19 1014.56 1014.92 1015.28 1015.66 1016.05 1016.44 1016.82 1017.18 1017.51 1017.80 1018.05 1018.25 1018.42 1018.55 1018.65 1018.71 1018.72 1018.68 1018.59 1018.45 1018.26
1011.94 1011.63 1011.27 1010.89 1010.48 1010.06 1009.61 1009.14 1008.67 1008.22 1007.83 1007.52 1007.34 1007.30 1007.44 1007.73 1008.18 1008.73 1009.37 1010.04 1010.71 1011.36 1011.95 1012.49 1012.97 1013.40 1013.79 1014.15 1014.50 1014.86 1015.22 1015.60 1015.99 1016.39 1016.78 1017.15 1017.49 1017.79 1018.05 1018.27 1018.46 1018.62 1018.75 1018.84 1018.90 1018.91 1018.88 1018.79 1018.67
1011.74 1011.37 1010.98 1010.57 1010.17 1009.77 1009.36 1008.96 1008.56 1008.19 1007.88 1007.65 1007.54 1007.56 1007.74 1008.06 1008.51 1009.06 1009.66 1010.29 1010.92 1011.50 1012.04 1012.52 1012.95 1013.33 1013.68 1014.02 1014.35 1014.70 1015.07 1015.46 1015.86 1016.27 1016.67 1017.05 1017.40 1017.72 1018.00 1018.24 1018.45 1018.64 1018.80 1018.93 1019.04 1019.11 1019.14 1019.12 1019.07
1011.52 1011.11 1010.70 1010.31 1009.94 1009.59 1009.27 1008.96 1008.67 1008.42 1008.21 1008.08 1008.05 1008.14 1008.35 1008.67 1009.09 1009.59 1010.12 1010.66 1011.18 1011.67 1012.10 1012.50 1012.84 1013.16 1013.47 1013.78 1014.11 1014.46 1014.84 1015.25 1015.68 1016.11 1016.54 1016.94 1017.31 1017.65 1017.94 1018.20 1018.42 1018.63 1018.81 1018.98 1019.12 1019.24 1019.33 1019.38 1019.39
1011.30 1010.90 1010.51 1010.17 1009.87 1009.62 1009.41 1009.23 1009.07 1008.95 1008.87 1008.85 1008.90 1009.04 1009.25 1009.55 1009.90 1010.30 1010.72 1011.12 1011.50 1011.85 1012.16 1012.44 1012.70 1012.95 1013.22 1013.50 1013.83 1014.20 1014.61 1015.05 1015.52 1016.00 1016.46 1016.90 1017.30 1017.66 1017.97 1018.23 1018.46 1018.67 1018.86 1019.04 1019.20 1019.34 1019.47 1019.56 1019.63
1011.12 1010.76 1010.44 1010.19 1010.00 1009.88 1009.82 1009.78 1009.78 1009.80 1009.85 1009.93 1010.04 1010.20 1010.41 1010.65 1010.91 1011.18 1011.45 1011.69 1011.91 1012.10 1012.26 1012.42 1012.59 1012.77 1013.00 1013.28 1013.62 1014.02 1014.48 1014.98 1015.50 1016.04 1016.55 1017.04 1017.47 1017.85 1018.17 1018.43 1018.66 1018.85 1019.02 1019.18 1019.34 1019.48 1019.61 1019.72 1019.81
1010.96 1010.69 1010.48 1010.36 1010.32 1010.35 1010.45 1010.58 1010.73 1010.89 1011.05 1011.22 1011.38 1011.55 1011.73 1011.89 1012.05 1012.19 1012.30 1012.38 1012.44 1012.47 1012.50 1012.55 1012.63 1012.77 1012.97 1013.25 1013.62 1014.06 1014.57 1015.14 1015.73 1016.33 1016.90 1017.43 1017.90 1018.30 1018.62 1018.87 1019.07 1019.23 1019.37 1019.49 1019.61 1019.72 1019.83 1019.92 1020.00
1010.80 1010.64 1010.57 1010.60 1010.72 1010.92 1011.18 1011.47 1011.77 1012.06 1012.32 1012.56 1012.77 1012.95 1013.09 1013.20 1013.26 1013.29 1013.27 1013.22 1013.14 1013.06 1012.98 1012.94 1012.96 1013.06 1013.25 1013.54 1013.93 1014.42 1014.99 1015.61 1016.26 1016.92 1017.54 1018.11 1018.60 1019.01 1019.33 1019.56 1019.73 1019.84 1019.92 1019.99 1020.05 1020.11 1020.17 1020.23 1020.27
1010.58 1010.55 1010.62 1010.80 1011.08 1011.44 1011.85 1012.28 1012.71 1013.12 1013.48 1013.79 1014.05 1014.24 1014.38 1014.46 1014.47 1014.43 1014.34 1014.21 1014.05 1013.89 1013.75 1013.66 1013.65 1013.72 1013.91 1014.21 1014.62 1015.14 1015.74 1016.41 1017.10 1017.79 1018.44 1019.02 1019.52 1019.93 1020.23 1020.43 1020.55 1020.62 1020.65 1020.65 1020.65 1020.65 1020.65 1020.66 1020.65
1010.29 1010.36 1010.55 1010.86 1011.27 1011.76 1012.30 1012.86 1013.40 1013.90 1014.36 1014.74 1015.06 1015.31 1015.48 1015.58 1015.61 1015.57 1015.47 1015.33 1015.16 1014.98 1014.83 1014.73 1014.70 1014.77 1014.95 1015.25 1015.67 1016.19 1016.80 1017.47 1018.17 1018.86 1019.50 1020.08 1020.56 1020.94 1021.21 1021.38 1021.46 1021.48 1021.45 1021.41 1021.35 1021.29 1021.24 1021.18 1021.12
1009.90 1010.05 1010.32 1010.72 1011.22 1011.80 1012.43 1013.07 1013.71 1014.30 1014.84 1015.32 1015.73 1016.06 1016.31 1016.50 1016.60 1016.63 1016.61 1016.52 1016.41 1016.28 1016.16 1016.07 1016.06 1016.13 1016.30 1016.59 1016.98 1017.48 1018.06 1018.70 1019.35 1020.00 1020.61 1021.14 1021.58 1021.92 1022.15 1022.27 1022.32 1022.30 1022.24 1022.15 1022.05 1021.95 1021.86 1021.75 1021.65
1009.47 1009.64 1009.94 1010.37 1010.91 1011.54 1012.22 1012.92 1013.62 1014.29 1014.92 1015.50 1016.02 1016.47 1016.86 1017.18 1017.42 1017.59 1017.69 1017.73 1017.71 1017.67 1017.62 1017.58 1017.58 1017.66 1017.81 1018.07 1018.42 1018.86 1019.37 1019.93 1020.52 1021.09 1021.62 1022.08 1022.46 1022.74 1022.93 1023.02 1023.03 1022.99 1022.90 1022.80 1022.68 1022.56 1022.43 1022.30 1022.16
1009.08 1009.22 1009.50 1009.91 1010.44 1011.06 1011.75 1012.48 1013.23 1013.97 1014.68 1015.37 1016.01 1016.61 1017.15 1017.64 1018.05 1018.39 1018.66 1018.85 1018.97 1019.03 1019.06 1019.08 1019.11 1019.19 1019.32 1019.53 1019.81 1020.17 1020.59 1021.05 1021.54 1022.01 1022.44 1022.82 1023.13 1023.35 1023.49 1023.55 1023.55 1023.50 1023.41 1023.30 1023.18 1023.06 1022.92 1022.78 1022.61
1008.82 1008.91 1009.13 1009.48 1009.96 1010.54 1011.21 1011.94 1012.70 1013.49 1014.28 1015.07 1015.84 1016.58 1017.29 1017.94 1018.53 1019.05 1019.47 1019.81 1020.06 1020.24 1020.35 1020.42 1020.48 1020.55 1020.65 1020.81 1021.02 1021.29 1021.61 1021.97 1022.34 1022.70 1023.04 1023.33 1023.57 1023.74 1023.84 1023.89 1023.88 1023.84 1023.76 1023.67 1023.56 1023.44 1023.31 1023.15 1022.98
1008.80 1008.82 1008.97 1009.25 1009.66 1010.18 1010.80 1011.51 1012.27 1013.09 1013.94 1014.81 1015.68 1016.55 1017.38 1018.18 1018.91 1019.57 1020.12 1020.58 1020.93 1021.19 1021.36 1021.48 1021.55 1021.62 1021.70 1021.81 1021.96 1022.15 1022.38 1022.64 1022.91 1023.18 1023.43 1023.65 1023.82 1023.96 1024.04 1024.09 1024.09 1024.07 1024.02 1023.94 1023.85 1023.74 1023.60 1023.45 1023.26
1009.07 1009.05 1009.13 1009.34 1009.68 1010.13 1010.70 1011.38 1012.14 1012.97 1013.86 1014.78 1015.72 1016.66 1017.58 1018.46 1019.28 1020.01 1020.64 1021.16 1021.57 1021.87 1022.08 1022.21 1022.30 1022.37 1022.43 1022.51 1022.61 1022.75 1022.92 1023.10 1023.30 1023.50 1023.68 1023.85 1023.98 1024.10 1024.18 1024.23 1024.26 1024.26 1024.24 1024.19 1024.11 1024.01 1023.86 1023.69 1023.49
Thickness
5784 5791 5796 5796 5788 5786 5784 5790 5799 5800 5805 5813 5815 5814 5810 5808 5802 5795 5812 5822 5819 5814 5805 5793 5788 5786 5784 5782 5780 5777 5774 5771 5768 5765 5763 5760 5758 5756 5754 5753 5751 5750 5749 5748 5747 5746 5745 5744 5743
5786 5790 5790 5788 5776 5770 5778 5792 5793 5798 5806 5815 5816 5812 5808 5810 5812 5809 5812 5814 5812 5807 5799 5792 5784 5782 5780 5778 5776 5773 5771 5768 5764 5762 5759 5756 5754 5752 5750 5749 5748 5747 5746 5745 5744 5743 5741 5740 5739
5784 5786 5780 5777 5771 5772 5777 5791 5795 5805 5814 5811 5810 5813 5810 5807 5810 5809 5812 5810 5806 5800 5795 5787 5780 5777 5775 5773 5771 5770 5767 5764 5761 5758 5755 5753 5750 5748 5747 5746 5745 5744 5743 5742 5741 5739 5738 5737 5736
5780 5777 5774 5765 5766 5784 5787 5793 5797 5801 5810 5813 5811 5807 5813 5812 5812 5812 5810 5807 5801 5796 5790 5782 5776 5773 5771 5769 5768 5766 5763 5760 5757 5755 5752 5749 5747 5745 5744 5744 5742 5741 5740 5739 5738 5736 5735 5734 5732
5776 5769 5759 5758 5769 5786 5792 5795 5797 5796 5800 5807 5808 5805 5806 5811 5815 5812 5806 5803 5797 5793 5788 5779 5772 5769 5767 5765 5764 5762 5759 5757 5754 5751 5749 5746 5744 5743 5742 5741 5740 5739 5738 5737 5735 5733 5732 5731 5730
5763 5763 5751 5754 5769 5784 5789 5793 5795 5796 5802 5808 5808 5807 5806 5810 5809 5807 5804 5800 5797 5792 5785 5775 5767 5765 5763 5761 5760 5758 5756 5753 5751 5748 5746 5744 5742 5741 5740 5739 5738 5737 5736 5734 5733 5731 5730 5729 5728
5756 5755 5754 5762 5769 5776 5784 5791 5789 5793 5797 5805 5811 5804 5804 5806 5808 5807 5803 5799 5795 5790 5784 5774 5767 5762 5759 5758 5756 5754 5752 5750 5748 5745 5743 5741 5739 5738 5738 5737 5736 5735 5734 5733 5731 5730 5728 5727 5726
5758 5755 5753 5760 5763 5771 5786 5786 5790 5792 5795 5809 5811 5802 5802 5804 5808 5806 5801 5797 5792 5788 5783 5775 5770 5765 5760 5756 5752 5750 5749 5747 5745 5743 5741 5739 5738 5737 5736 5736 5734 5733 5732 5731 5730 5728 5727 5725 5724
5748 5739 5747 5758 5762 5770 5781 5777 5787 5797 5798 5804 5811 5811 5813 5810 5807 5800 5793 5789 5786 5784 5781 5776 5771 5766 5763 5759 5752 5748 5746 5744 5742 5741 5739 5738 5740 5740 5737 5736 5733 5732 5731 5730 5729 5727 5726 5725 5724
5735 5734 5748 5763 5768 5769 5774 5772 5780 5784 5789 5796 5804 5808 5809 5805 5801 5795 5789 5785 5782 5778 5778 5776 5773 5767 5765 5761 5754 5751 5748 5745 5745 5744 5741 5741 5742 5741 5740 5734 5732 5731 5730 5729 5728 5726 5725 5726 5729
5731 5734 5749 5753 5757 5760 5764 5768 5777 5776 5779 5794 5799 5803 5803 5800 5798 5795 5791 5787 5783 5779 5776 5776 5773 5768 5766 5761 5756 5754 5752 5748 5747 5746 5743 5742 5741 5739 5738 5736 5732 5731 5730 5732 5729 5729 5731 5731 5731
5723 5730 5737 5744 5752 5752 5756 5764 5769 5775 5785 5802 5807 5808 5803 5798 5798 5797 5793 5789 5785 5779 5775 5775 5772 5767 5764 5762 5758 5755 5753 5750 5749 5745 5743 5742 5741 5739 5739 5737 5737 5735 5734 5732 5733 5732 5731 5729 5729
5713 5723 5731 5739 5745 5750 5755 5758 5765 5775 5791 5801 5804 5804 5802 5800 5800 5799 5797 5792 5786 5779 5775 5773 5770 5765 5761 5759 5757 5755 5753 5752 5749 5745 5743 5741 5740 5739 5738 5736 5733 5734 5733 5731 5729 5730 5729 5728 5728
5716 5721 5728 5737 5743 5748 5748 5756 5761 5772 5788 5792 5795 5797 5800 5799 5799 5795 5791 5786 5782 5778 5774 5772 5767 5762 5758 5755 5754 5753 5752 5748 5749 5745 5743 5739 5739 5737 5735 5733 5730 5730 5729 5729 5727 5727 5725 5725 5726
5712 5712 5723 5735 5741 5747 5748 5746 5757 5775 5784 5784 5788 5791 5793 5794 5793 5789 5787 5782 5779 5775 5772 5768 5764 5760 5756 5754 5753 5752 5750 5747 5746 5743 5740 5737 5736 5734 5731 5731 5728 5727 5724 5722 5721 5720 5720 5720 5720
5706 5708 5716 5734 5740 5745 5740 5741 5761 5775 5777 5776 5780 5783 5783 5784 5785 5784 5784 5779 5777 5774 5769 5766 5764 5759 5754 5752 5750 5751 5749 5746 5744 5741 5738 5734 5732 5729 5727 5726 5725 5721 5719 5717 5715 5714 5714 5713 5713
5698 5705 5715 5724 5738 5742 5740 5744 5754 5768 5770 5769 5772 5774 5773 5772 5774 5776 5778 5775 5774 5771 5767 5763 5762 5758 5755 5751 5748 5747 5745 5743 5740 5737 5734 5731 5727 5723 5721 5720 5717 5713 5711 5710 5709 5707 5705 5704 5703
5697 5706 5710 5718 5730 5736 5734 5736 5746 5757 5761 5762 5763 5763 5762 5761 5762 5766 5769 5770 5769 5767 5764 5761 5759 5757 5754 5750 5747 5744 5742 5739 5735 5733 5729 5725 5721 5717 5714 5712 5709 5706 5703 5701 5699 5697 5695 5694 5692
5694 5699 5704 5713 5726 5728 5725 5724 5731 5742 5747 5748 5750 5750 5751 5751 5754 5757 5759 5761 5761 5761 5759 5757 5756 5755 5752 5749 5745 5740 5737 5734 5731 5727 5723 5719 5716 5713 5709 5706 5703 5699 5696 5693 5691 5689 5686 5684 5682
5687 5692 5701 5709 5719 5720 5715 5712 5718 5723 5725 5729 5732 5734 5737 5739 5741 5744 5747 5750 5751 5752 5753 5753 5752 5751 5749 5747 5743 5739 5734 5729 5725 5721 5715 5711 5709 5706 5702 5698 5696 5693 5688 5685 5684 5681 5678 5675 5673
5684 5693 5702 5703 5712 5718 5715 5705 5708 5711 5715 5717 5720 5723 5724 5725 5727 5731 5734 5737 5740 5741 5744 5747 5747 5746 5744 5742 5738 5732 5727 5720 5716 5711 5705 5702 5700 5696 5693 5690 5687 5685 5683 5681 5677 5674 5671 5668 5666
5682 5698 5700 5702 5706 5710 5718 5699 5698 5703 5701 5702 5705 5708 5708 5711 5714 5717 5720 5723 5726 5729 5734 5736 5737 5737 5736 5735 5732 5727 5720 5713 5708 5702 5696 5691 5689 5686 5683 5680 5677 5675 5674 5672 5670 5668 5667 5663 5660
5690 5701 5702 5705 5709 5711 5715 5709 5691 5701 5693 5690 5691 5692 5694 5697 5700 5702 5705 5708 5711 5716 5720 5722 5724 5724 5725 5724 5722 5718 5712 5706 5697 5692 5686 5681 5677 5673 5671 5669 5666 5664 5662 5660 5659 5657 5656 5654 5651
5694 5696 5699 5704 5711 5698 5708 5708 5685 5694 5688 5682 5680 5680 5682 5685 5687 5689 5692 5695 5697 5701 5704 5706 5708 5707 5708 5709 5707 5705 5700 5693 5686 5680 5674 5669 5662 5657 5655 5655 5653 5650 5648 5647 5646 5644 5642 5639 5637
5689 5686 5683 5686 5691 5694 5706 5701 5678 5686 5688 5681 5673 5671 5671 5673 5675 5677 5679 5681 5682 5685 5687 5690 5690 5689 5689 5690 5688 5686 5683 5679 5673 5666 5660 5654 5647 5641 5639 5640 5637 5635 5634 5632 5631 5628 5626 5624 5621
5689 5693 5690 5687 5692 5693 5697 5685 5673 5678 5678 5674 5668 5664 5662 5662 5663 5663 5664 5666 5668 5669 5671 5672 5673 5672 5671 5670 5669 5667 5664 5661 5655 5649 5643 5637 5631 5627 5625 5624 5621 5619 5617 5616 5614 5612 5609 5607 5604
5690 5695 5710 5702 5702 5693 5685 5673 5666 5669 5666 5663 5659 5655 5652 5651 5651 5650 5651 5652 5653 5654 5655 5656 5656 5655 5653 5652 5651 5647 5644 5640 5635 5630 5626 5620 5616 5612 5609 5606 5604 5601 5599 5597 5596 5593 5590 5588 5587
5702 5703 5698 5697 5686 5681 5677 5676 5671 5662 5659 5655 5651 5647 5644 5642 5640 5638 5638 5638 5638 5639 5639 5639 5638 5637 5636 5634 5631 5627 5623 5620 5616 5612 5606 5602 5598 5595 5592 5589 5586 5583 5580 5578 5578 5576 5573 5571 5568
5690 5693 5695 5701 5702 5692 5676 5671 5680 5670 5661 5652 5645 5640 5636 5632 5629 5627 5625 5625 5625 5625 5624 5623 5621 5620 5617 5614 5611 5608 5604 5601 5598 5594 5589 5585 5581 5578 5575 5571 5568 5566 5563 5561 5560 5558 5555 5553 5551
5694 5692 5692 5686 5685 5693 5691 5659 5670 5667 5657 5646 5636 5630 5626 5622 5618 5615 5614 5612 5611 5610 5608 5607 5605 5603 5600 5597 5594 5590 5587 5584 5581 5577 5572 5568 5565 5562 5558 5555 5552 5549 5546 5544 5542 5540 5538 5536 5534